Time,TemperatureF,DewpointF,PressureIn,WindDirection,WindDirectionDegrees,WindSpeedMPH,WindSpeedGustMPH,Humidity,HourlyPrecipIn,Conditions,Clouds,dailyrainin,SolarRadiationWatts/m^2,SoftwareType,DateUTC
2013-04-25 00:01:00,61.0,56.0,-100.00,NW,311,8.0,13.0,84,0.00,,,0.00,0.000000,,2013-04-25 10:01:00,
2013-04-25 00:22:00,61.0,56.0,-100.00,NW,311,8.0,13.0,84,0.00,,,0.00,0.000000,,2013-04-25 10:22:00,
2013-04-25 00:33:00,61.0,56.0,-100.00,NW,311,8.0,13.0,84,0.00,,,0.00,0.000000,,2013-04-25 10:33:00,
2013-04-25 00:42:00,61.0,56.0,-100.00,NW,311,8.0,13.0,84,0.00,,,0.00,0.000000,,2013-04-25 10:42:00,
2013-04-25 00:53:00,61.0,56.0,-100.00,NW,311,8.0,13.0,84,0.00,,,0.00,0.000000,,2013-04-25 10:53:00,
2013-04-25 01:01:00,60.0,57.0,-100.00,NW,324,5.0,17.0,89,0.00,,,0.00,0.000000,,2013-04-25 11:01:00,
2013-04-25 01:22:00,60.0,57.0,-100.00,NW,324,5.0,17.0,89,0.00,,,0.00,0.000000,,2013-04-25 11:22:00,
2013-04-25 01:32:00,60.0,57.0,-100.00,NW,324,5.0,17.0,89,0.00,,,0.00,0.000000,,2013-04-25 11:32:00,
2013-04-25 01:42:00,60.0,57.0,-100.00,NW,324,5.0,17.0,89,0.00,,,0.00,0.000000,,2013-04-25 11:42:00,
2013-04-25 01:52:00,60.0,57.0,-100.00,NW,324,5.0,17.0,89,0.00,,,0.00,0.000000,,2013-04-25 11:52:00,
2013-04-25 02:01:00,59.0,55.0,-100.00,NW,316,8.0,13.0,86,0.00,,,0.00,0.000000,,2013-04-25 12:01:00,
2013-04-25 02:22:00,59.0,55.0,-100.00,NW,316,8.0,13.0,86,0.00,,,0.00,0.000000,,2013-04-25 12:22:00,
2013-04-25 02:32:00,59.0,55.0,-100.00,NW,316,8.0,13.0,86,0.00,,,0.00,0.000000,,2013-04-25 12:32:00,
2013-04-25 02:42:00,59.0,55.0,-100.00,NW,316,8.0,13.0,86,0.00,,,0.00,0.000000,,2013-04-25 12:42:00,
2013-04-25 02:52:00,59.0,55.0,-100.00,NW,316,8.0,13.0,86,0.00,,,0.00,0.000000,,2013-04-25 12:52:00,
2013-04-25 03:01:00,60.0,50.0,-100.00,NNE,23,17.0,24.0,70,0.00,,,0.00,0.000000,,2013-04-25 13:01:00,
2013-04-25 03:32:00,60.0,50.0,-100.00,NNE,23,17.0,24.0,70,0.00,,,0.00,0.000000,,2013-04-25 13:32:00,
2013-04-25 03:42:00,60.0,50.0,-100.00,NNE,23,17.0,24.0,70,0.00,,,0.00,0.000000,,2013-04-25 13:42:00,
2013-04-25 03:52:00,60.0,50.0,-100.00,NNE,23,17.0,24.0,70,0.00,,,0.00,0.000000,,2013-04-25 13:52:00,
2013-04-25 04:01:00,61.0,53.0,-100.00,NNE,24,15.0,23.0,76,0.00,,,0.00,0.000000,,2013-04-25 14:01:00,
2013-04-25 04:32:00,61.0,53.0,-100.00,NNE,24,15.0,23.0,76,0.00,,,0.00,0.000000,,2013-04-25 14:32:00,
2013-04-25 04:42:00,61.0,53.0,-100.00,NNE,24,15.0,23.0,76,0.00,,,0.00,0.000000,,2013-04-25 14:42:00,
2013-04-25 04:52:00,61.0,53.0,-100.00,NNE,24,15.0,23.0,76,0.00,,,0.00,0.000000,,2013-04-25 14:52:00,
2013-04-25 05:01:00,62.0,54.0,-100.00,NNE,27,14.0,23.0,76,0.00,,,0.00,0.000000,,2013-04-25 15:01:00,
2013-04-25 05:33:00,62.0,54.0,-100.00,NNE,27,14.0,23.0,76,0.00,,,0.00,0.000000,,2013-04-25 15:33:00,
2013-04-25 05:42:00,62.0,54.0,-100.00,NNE,27,14.0,23.0,76,0.00,,,0.00,0.000000,,2013-04-25 15:42:00,
2013-04-25 05:53:00,62.0,54.0,-100.00,NNE,27,14.0,23.0,76,0.00,,,0.00,0.000000,,2013-04-25 15:53:00,
2013-04-25 06:01:00,62.0,54.0,-100.00,NNE,27,13.0,21.0,75,0.00,,,0.00,1.000000,,2013-04-25 16:01:00,
2013-04-25 06:33:00,62.0,54.0,-100.00,NNE,27,13.0,21.0,75,0.00,,,0.00,1.000000,,2013-04-25 16:33:00,
2013-04-25 06:43:00,62.0,54.0,-100.00,NNE,27,13.0,21.0,75,0.00,,,0.00,1.000000,,2013-04-25 16:43:00,
2013-04-25 06:52:00,62.0,54.0,-100.00,NNE,27,13.0,21.0,75,0.00,,,0.00,1.000000,,2013-04-25 16:52:00,
2013-04-25 07:01:00,64.0,55.0,-100.00,North,5,12.0,24.0,73,0.00,,,0.00,83.000000,,2013-04-25 17:01:00,
2013-04-25 07:22:00,64.0,55.0,-100.00,North,5,12.0,24.0,73,0.00,,,0.00,83.000000,,2013-04-25 17:22:00,
2013-04-25 07:32:00,64.0,55.0,-100.00,North,5,12.0,24.0,73,0.00,,,0.00,83.000000,,2013-04-25 17:32:00,
2013-04-25 07:42:00,64.0,55.0,-100.00,North,5,12.0,24.0,73,0.00,,,0.00,83.000000,,2013-04-25 17:42:00,
2013-04-25 07:53:00,64.0,55.0,-100.00,North,5,12.0,24.0,73,0.00,,,0.00,83.000000,,2013-04-25 17:53:00,
2013-04-25 08:01:00,69.0,55.0,-100.00,NNE,13,15.0,27.0,60,0.00,,,0.00,306.000000,,2013-04-25 18:01:00,
2013-04-25 08:32:00,69.0,55.0,-100.00,NNE,13,15.0,27.0,60,0.00,,,0.00,306.000000,,2013-04-25 18:32:00,
2013-04-25 08:43:00,69.0,55.0,-100.00,NNE,13,15.0,27.0,60,0.00,,,0.00,306.000000,,2013-04-25 18:43:00,
2013-04-25 08:52:00,69.0,55.0,-100.00,NNE,13,15.0,27.0,60,0.00,,,0.00,306.000000,,2013-04-25 18:52:00,
2013-04-25 09:01:00,71.0,54.0,-100.00,NE,52,12.0,22.0,55,0.00,,,0.00,535.000000,,2013-04-25 19:01:00,
2013-04-25 09:21:00,71.0,54.0,-100.00,NE,52,12.0,22.0,55,0.00,,,0.00,535.000000,,2013-04-25 19:21:00,
2013-04-25 09:32:00,71.0,54.0,-100.00,NE,52,12.0,22.0,55,0.00,,,0.00,535.000000,,2013-04-25 19:32:00,
2013-04-25 09:42:00,71.0,54.0,-100.00,NE,52,12.0,22.0,55,0.00,,,0.00,535.000000,,2013-04-25 19:42:00,
2013-04-25 09:52:00,71.0,54.0,-100.00,NE,52,12.0,22.0,55,0.00,,,0.00,535.000000,,2013-04-25 19:52:00,
2013-04-25 10:01:00,74.0,54.0,-100.00,NE,41,13.0,23.0,50,0.00,,,0.00,667.000000,,2013-04-25 20:01:00,
2013-04-25 10:32:00,74.0,54.0,-100.00,NE,41,13.0,23.0,50,0.00,,,0.00,667.000000,,2013-04-25 20:32:00,
2013-04-25 10:43:00,74.0,54.0,-100.00,NE,41,13.0,23.0,50,0.00,,,0.00,667.000000,,2013-04-25 20:43:00,
2013-04-25 10:52:00,74.0,54.0,-100.00,NE,41,13.0,23.0,50,0.00,,,0.00,667.000000,,2013-04-25 20:52:00,
2013-04-25 11:01:00,75.0,57.0,-100.00,NE,35,17.0,25.0,53,0.00,,,0.00,894.000000,,2013-04-25 21:01:00,
2013-04-25 11:22:00,75.0,57.0,-100.00,NE,35,17.0,25.0,53,0.00,,,0.00,894.000000,,2013-04-25 21:22:00,
2013-04-25 11:33:00,75.0,57.0,-100.00,NE,35,17.0,25.0,53,0.00,,,0.00,894.000000,,2013-04-25 21:33:00,
2013-04-25 11:42:00,75.0,57.0,-100.00,NE,35,17.0,25.0,53,0.00,,,0.00,894.000000,,2013-04-25 21:42:00,
2013-04-25 11:52:00,75.0,57.0,-100.00,NE,35,17.0,25.0,53,0.00,,,0.00,894.000000,,2013-04-25 21:52:00,
2013-04-25 12:01:00,75.0,55.0,-100.00,NNE,32,16.0,29.0,50,0.00,,,0.00,987.000000,,2013-04-25 22:01:00,
2013-04-25 12:33:00,75.0,55.0,-100.00,NNE,32,16.0,29.0,50,0.00,,,0.00,987.000000,,2013-04-25 22:33:00,
2013-04-25 12:42:00,75.0,55.0,-100.00,NNE,32,16.0,29.0,50,0.00,,,0.00,987.000000,,2013-04-25 22:42:00,
2013-04-25 12:52:00,75.0,55.0,-100.00,NNE,32,16.0,29.0,50,0.00,,,0.00,987.000000,,2013-04-25 22:52:00,
2013-04-25 13:01:00,77.0,57.0,-100.00,NE,48,15.0,27.0,50,0.00,,,0.00,1004.000000,,2013-04-25 23:01:00,
2013-04-25 13:32:00,77.0,57.0,-100.00,NE,48,15.0,27.0,50,0.00,,,0.00,1004.000000,,2013-04-25 23:32:00,
2013-04-25 13:42:00,77.0,57.0,-100.00,NE,48,15.0,27.0,50,0.00,,,0.00,1004.000000,,2013-04-25 23:42:00,
2013-04-25 13:52:00,77.0,57.0,-100.00,NE,48,15.0,27.0,50,0.00,,,0.00,1004.000000,,2013-04-25 23:52:00,
2013-04-25 14:01:00,75.0,58.0,-100.00,NE,40,19.0,30.0,55,0.00,,,0.00,954.000000,,2013-04-26 00:01:00,
2013-04-25 14:22:00,75.0,58.0,-100.00,NE,40,19.0,30.0,55,0.00,,,0.00,954.000000,,2013-04-26 00:22:00,
2013-04-25 14:32:00,75.0,58.0,-100.00,NE,40,19.0,30.0,55,0.00,,,0.00,954.000000,,2013-04-26 00:32:00,
2013-04-25 14:42:00,75.0,58.0,-100.00,NE,40,19.0,30.0,55,0.00,,,0.00,954.000000,,2013-04-26 00:42:00,
2013-04-25 14:52:00,75.0,58.0,-100.00,NE,40,19.0,30.0,55,0.00,,,0.00,954.000000,,2013-04-26 00:52:00,
2013-04-25 15:01:00,75.0,56.0,-100.00,NE,38,15.0,29.0,52,0.00,,,0.00,786.000000,,2013-04-26 01:01:00,
2013-04-25 15:22:00,75.0,56.0,-100.00,NE,38,15.0,29.0,52,0.00,,,0.00,786.000000,,2013-04-26 01:22:00,
2013-04-25 15:32:00,75.0,56.0,-100.00,NE,38,15.0,29.0,52,0.00,,,0.00,786.000000,,2013-04-26 01:32:00,
2013-04-25 15:42:00,75.0,56.0,-100.00,NE,38,15.0,29.0,52,0.00,,,0.00,786.000000,,2013-04-26 01:42:00,
2013-04-25 15:52:00,75.0,56.0,-100.00,NE,38,15.0,29.0,52,0.00,,,0.00,786.000000,,2013-04-26 01:52:00,
2013-04-25 16:01:00,74.0,55.0,-100.00,NNE,32,18.0,28.0,51,0.00,,,0.00,694.000000,,2013-04-26 02:01:00,
2013-04-25 16:32:00,74.0,55.0,-100.00,NNE,32,18.0,28.0,51,0.00,,,0.00,694.000000,,2013-04-26 02:32:00,
2013-04-25 16:42:00,74.0,55.0,-100.00,NNE,32,18.0,28.0,51,0.00,,,0.00,694.000000,,2013-04-26 02:42:00,
2013-04-25 16:52:00,74.0,55.0,-100.00,NNE,32,18.0,28.0,51,0.00,,,0.00,694.000000,,2013-04-26 02:52:00,
2013-04-25 17:01:00,73.0,57.0,-100.00,NE,36,13.0,24.0,58,0.00,,,0.00,472.000000,,2013-04-26 03:01:00,
2013-04-25 17:22:00,73.0,57.0,-100.00,NE,36,13.0,24.0,58,0.00,,,0.00,472.000000,,2013-04-26 03:22:00,
2013-04-25 17:33:00,73.0,57.0,-100.00,NE,36,13.0,24.0,58,0.00,,,0.00,472.000000,,2013-04-26 03:33:00,
2013-04-25 17:43:00,73.0,57.0,-100.00,NE,36,13.0,24.0,58,0.00,,,0.00,472.000000,,2013-04-26 03:43:00,
2013-04-25 17:53:00,73.0,57.0,-100.00,NE,36,13.0,24.0,58,0.00,,,0.00,472.000000,,2013-04-26 03:53:00,
2013-04-25 18:01:00,68.0,56.0,-100.00,NNE,18,12.0,22.0,66,0.00,,,0.00,183.000000,,2013-04-26 04:01:00,
2013-04-25 18:32:00,68.0,56.0,-100.00,NNE,18,12.0,22.0,66,0.00,,,0.00,183.000000,,2013-04-26 04:32:00,
2013-04-25 18:43:00,68.0,56.0,-100.00,NNE,18,12.0,22.0,66,0.00,,,0.00,183.000000,,2013-04-26 04:43:00,
2013-04-25 18:53:00,68.0,56.0,-100.00,NNE,18,12.0,22.0,66,0.00,,,0.00,183.000000,,2013-04-26 04:53:00,
2013-04-25 19:01:00,65.0,56.0,-100.00,NNW,346,10.0,19.0,73,0.00,,,0.00,27.000000,,2013-04-26 05:01:00,
2013-04-25 19:32:00,65.0,56.0,-100.00,NNW,346,10.0,19.0,73,0.00,,,0.00,27.000000,,2013-04-26 05:32:00,
2013-04-25 19:42:00,65.0,56.0,-100.00,NNW,346,10.0,19.0,73,0.00,,,0.00,27.000000,,2013-04-26 05:42:00,
2013-04-25 19:52:00,65.0,56.0,-100.00,NNW,346,10.0,19.0,73,0.00,,,0.00,27.000000,,2013-04-26 05:52:00,
2013-04-25 20:01:00,64.0,57.0,-100.00,North,353,10.0,18.0,79,0.00,,,0.00,0.000000,,2013-04-26 06:01:00,
2013-04-25 20:22:00,64.0,57.0,-100.00,North,353,10.0,18.0,79,0.00,,,0.00,0.000000,,2013-04-26 06:22:00,
2013-04-25 20:32:00,64.0,57.0,-100.00,North,353,10.0,18.0,79,0.00,,,0.00,0.000000,,2013-04-26 06:32:00,
2013-04-25 20:42:00,64.0,57.0,-100.00,North,353,10.0,18.0,79,0.00,,,0.00,0.000000,,2013-04-26 06:42:00,
2013-04-25 20:52:00,64.0,57.0,-100.00,North,353,10.0,18.0,79,0.00,,,0.00,0.000000,,2013-04-26 06:52:00,
2013-04-25 21:01:00,64.0,54.0,-100.00,North,10,17.0,25.0,71,0.00,,,0.00,0.000000,,2013-04-26 07:01:00,
2013-04-25 21:32:00,64.0,54.0,-100.00,North,10,17.0,25.0,71,0.00,,,0.00,0.000000,,2013-04-26 07:32:00,
2013-04-25 21:42:00,64.0,54.0,-100.00,North,10,17.0,25.0,71,0.00,,,0.00,0.000000,,2013-04-26 07:42:00,
2013-04-25 21:52:00,64.0,54.0,-100.00,North,10,17.0,25.0,71,0.00,,,0.00,0.000000,,2013-04-26 07:52:00,
2013-04-25 22:01:00,64.0,54.0,-100.00,North,356,11.0,24.0,69,0.00,,,0.00,0.000000,,2013-04-26 08:01:00,
2013-04-25 22:32:00,64.0,54.0,-100.00,North,356,11.0,24.0,69,0.00,,,0.00,0.000000,,2013-04-26 08:32:00,
2013-04-25 22:42:00,64.0,54.0,-100.00,North,356,11.0,24.0,69,0.00,,,0.00,0.000000,,2013-04-26 08:42:00,
2013-04-25 22:52:00,64.0,54.0,-100.00,North,356,11.0,24.0,69,0.00,,,0.00,0.000000,,2013-04-26 08:52:00,
2013-04-25 23:01:00,64.0,53.0,-100.00,NNE,13,15.0,23.0,68,0.00,,,0.00,0.000000,,2013-04-26 09:01:00,
2013-04-25 23:22:00,64.0,53.0,-100.00,NNE,13,15.0,23.0,68,0.00,,,0.00,0.000000,,2013-04-26 09:22:00,
2013-04-25 23:33:00,64.0,53.0,-100.00,NNE,13,15.0,23.0,68,0.00,,,0.00,0.000000,,2013-04-26 09:33:00,
2013-04-25 23:43:00,64.0,53.0,-100.00,NNE,13,15.0,23.0,68,0.00,,,0.00,0.000000,,2013-04-26 09:43:00,
2013-04-25 23:53:00,64.0,53.0,-100.00,NNE,13,15.0,23.0,68,0.00,,,0.00,0.000000,,2013-04-26 09:53:00,